CAPE
0 0 0 2 0 0 0 0 0 0 0 0 0 0 0 26 9 1 135 494 756 670 893 647 601 388 256 147 1 2 775 591 673 723 759 804 833 728 405 118 101 467 544 483 282 112 6 4 3
0 0 0 0 0 0 0 0 0 0 0 0 0 0 0 63 442 349 282 883 861 744 868 792 709 431 263 156 17 0 149 603 577 518 794 744 843 645 410 58 250 644 342 125 0 2 3 4 1
0 0 0 0 0 0 0 0 0 0 0 0 0 0 3 522 415 449 380 838 905 807 866 805 664 505 336 254 68 6 0 500 598 564 531 619 762 586 239 83 422 281 39 0 0 2 2 3 0
0 0 0 0 0 0 0 0 0 0 0 0 0 0 94 450 715 648 676 875 881 762 763 900 726 587 417 361 381 310 58 155 514 578 458 637 532 521 153 90 292 41 0 0 0 3 2 0 0
0 0 0 0 0 0 0 0 0 0 0 0 0 0 0 659 716 617 787 928 904 819 935 952 838 658 483 339 345 410 356 88 517 493 455 465 273 273 44 11 58 5 3 1 4 2 0 0 0
0 0 0 0 0 0 0 0 0 0 0 0 0 0 3 725 655 732 653 863 882 1070 1072 952 806 621 503 280 226 259 347 263 415 299 328 207 233 147 3 1 4 5 6 6 7 1 0 0 0
0 0 0 0 0 0 0 0 0 0 0 0 0 0 23 286 499 625 582 627 740 933 934 822 744 554 436 542 86 53 210 381 189 130 137 113 129 55 4 3 2 3 6 61 72 0 0 0 0
0 0 0 0 0 0 0 0 0 0 0 0 0 0 0 91 569 453 322 219 409 501 495 484 515 390 333 549 470 42 0 247 221 144 84 116 56 0 3 8 5 2 74 72 46 21 0 0 0
0 0 0 0 0 0 0 0 0 0 0 0 0 0 43 237 380 349 165 84 97 226 293 320 151 108 116 164 261 206 13 0 205 214 128 58 2 1 2 7 7 8 14 50 44 52 16 0 0
0 0 0 0 0 0 0 0 0 0 0 0 0 0 18 238 272 253 137 101 142 68 140 107 87 53 88 37 43 19 32 0 143 172 52 0 0 0 3 9 6 8 7 0 0 0 0 0 0
0 0 0 0 0 0 0 0 0 0 0 0 0 0 0 1 75 139 102 59 80 248 109 89 120 79 58 41 6 0 0 14 128 158 4 0 0 0 0 13 10 4 4 0 0 0 0 0 0
0 0 0 0 0 0 0 0 0 0 0 0 0 0 0 0 0 37 101 46 62 133 142 129 120 98 61 54 0 2 0 0 18 156 61 0 0 0 0 9 13 5 3 0 0 0 0 0 0
0 0 0 0 0 0 0 0 0 0 0 0 0 0 0 0 0 0 59 83 50 125 128 79 46 69 21 0 4 4 2 3 10 116 113 29 8 0 0 0 3 0 0 0 0 0 0 0 0
0 0 0 0 0 0 0 0 0 0 0 0 0 0 0 0 0 0 3 1 7 47 87 39 23 11 31 0 0 0 0 3 9 71 129 90 2 2 13 0 0 0 0 0 0 0 0 0 0
0 0 0 0 0 0 0 0 0 0 0 0 0 0 0 0 0 0 5 18 28 28 37 63 51 51 59 38 0 0 0 0 44 23 81 114 29 4 0 0 0 0 0 0 0 0 0 0 0
0 0 0 0 0 0 4 0 0 0 0 0 0 0 0 0 0 0 13 68 29 40 48 61 111 52 55 45 28 0 0 9 97 88 29 57 24 3 7 0 0 0 0 0 0 0 0 0 0
0 0 0 0 0 0 0 0 0 0 0 0 0 0 0 0 0 0 21 62 105 159 117 101 124 81 55 56 24 55 2 36 107 70 54 31 33 8 0 0 0 0 0 0 0 0 0 0 0
0 0 0 0 0 0 0 0 0 0 0 0 0 0 0 0 0 0 31 89 144 157 118 112 117 95 61 43 25 24 49 24 59 90 49 19 6 4 0 0 0 0 0 0 0 0 0 0 0
0 0 0 0 0 0 0 0 0 0 0 0 0 0 0 0 0 14 182 194 321 176 134 93 76 113 120 44 39 36 43 25 44 50 56 67 63 48 0 0 0 0 34 43 33 16 6 7 5
0 0 0 0 0 1 0 0 0 0 0 0 0 0 0 0 0 79 186 178 247 210 180 172 149 125 129 87 29 13 47 8 29 60 65 96 90 158 146 179 151 119 134 105 64 38 39 35 21
0 0 0 0 0 0 0 0 0 0 0 0 0 14 136 89 94 148 165 188 143 173 173 177 162 99 39 35 58 16 11 1 27 26 34 54 138 111 186 211 255 152 105 175 152 120 59 68 40
0 0 0 1 0 0 1 0 0 0 0 0 0 94 75 111 179 170 200 128 116 69 19 95 150 159 155 104 50 21 5 13 7 17 27 43 71 89 78 108 171 237 192 212 241 227 202 177 113
0 0 1 1 0 0 0 0 0 0 0 0 0 42 1 57 120 141 202 253 154 62 12 11 40 107 139 122 83 31 1 0 24 27 32 30 48 61 87 83 64 92 116 165 145 189 163 96 80
0 0 0 1 0 0 0 0 0 0 1 0 2 30 114 80 51 12 0 14 8 13 0 0 0 0 6 21 24 12 37 23 35 16 37 1 25 14 31 62 49 142 134 84 87 150 121 86 72
0 0 0 0 0 0 0 0 0 0 9 0 0 55 94 1 0 0 0 0 0 0 0 0 0 0 0 2 0 0 5 10 19 10 10 32 5 12 8 49 46 63 65 74 83 125 100 79 60
1 0 0 0 0 0 0 0 0 1 8 1 21 12 0 0 1 1 2 1 0 0 0 0 0 0 0 0 0 0 3 41 6 2 1 1 8 7 15 6 39 18 52 89 84 53 41 16 15
0 0 0 0 0 0 0 0 1 0 1 2 3 0 2 3 2 2 1 1 0 0 0 0 0 0 0 0 0 0 3 47 36 27 6 0 11 6 20 9 19 21 15 19 27 9 25 9 1
0 0 0 0 0 0 0 0 0 0 0 3 1 3 3 3 2 2 2 0 0 0 0 0 0 0 0 0 0 0 0 0 2 5 14 35 11 27 45 35 35 47 34 29 39 19 7 1 7
0 0 0 0 0 0 0 0 1 0 0 2 2 1 1 0 0 0 0 0 0 0 0 0 0 0 0 0 0 0 0 0 0 0 0 0 0 3 12 33 44 43 47 51 57 28 23 7 24
0 0 0 0 0 0 0 0 3 3 4 0 2 2 2 0 0 0 0 0 0 0 0 0 0 0 0 0 0 0 0 0 0 0 0 0 0 0 0 0 4 63 78 109 105 100 58 23 10
CIN
0 0 0 -30 0 0 0 0 0 0 0 0 0 0 0 -54 -15 -9 -144 -140 -162 -171 -137 -183 -134 -154 -172 -198 -252 -185 -19 -61 -46 -20 -12 -16 -14 -30 -82 -187 -181 -62 -40 -56 -100 -148 -1 0 0
0 0 0 -4 0 0 0 0 0 0 0 0 0 0 0 -101 -106 -124 -102 -94 -165 -164 -139 -125 -76 -119 -168 -184 -314 0 -155 -29 -48 -44 -3 -9 -4 -40 -83 -224 -123 -32 -66 -140 -1 -1 -1 0 0
0 0 0 0 0 0 0 0 0 0 0 0 0 0 -17 -41 -93 -114 -88 -97 -154 -147 -142 -138 -75 -75 -103 -116 -227 -221 0 -16 -21 -25 -19 -11 -3 -39 -120 -195 -72 -83 -210 -15 0 0 -1 0 0
0 0 0 0 0 0 0 0 0 0 0 0 0 0 -65 -72 -39 -73 -96 -66 -111 -155 -126 -98 -74 -58 -70 -48 -38 -58 -161 -63 -6 -17 -25 -1 -17 -42 -154 -181 -86 -246 0 0 0 0 0 0 0
0 0 0 0 0 0 0 0 0 0 0 0 0 0 0 -67 -66 -81 -100 -54 -66 -80 -62 -51 -34 -32 -50 -46 -25 -26 -29 -87 -1 -1 -14 -9 -41 -79 -221 -28 -163 -55 -5 -1 -1 0 0 0 0
0 0 0 0 0 0 0 0 0 0 0 0 0 0 -15 -71 -73 -78 -89 -84 -72 -55 -49 -32 -33 -27 -22 -68 -56 -25 -22 -34 -4 -7 -10 -29 -30 -122 -5 -3 -1 -1 0 -3 -1 0 0 0 0
0 0 0 0 0 0 0 0 0 0 0 0 0 0 -51 -83 -70 -88 -70 -98 -81 -57 -53 -48 -27 -19 -29 -8 -74 -121 -21 -7 -32 -23 -20 -36 -54 -182 -3 -2 -1 -1 -2 -149 -93 0 0 0 0
0 0 0 0 0 0 0 0 0 0 0 0 0 0 0 -31 -47 -110 -106 -115 -76 -70 -84 -67 -40 -52 -71 -13 -3 -91 0 -11 -16 -21 -27 -31 -132 0 0 -1 -2 -1 -32 -133 -29 -49 0 0 0
0 0 0 0 0 0 0 0 0 0 0 0 0 0 -59 -31 -85 -47 -118 -84 -107 -67 -66 -79 -125 -157 -178 -143 -41 -9 -106 0 -13 -14 -19 -91 -16 -2 -1 -5 -5 -2 -7 -36 -42 -42 -80 0 0
0 0 0 0 0 0 0 0 0 0 0 0 0 0 -13 -23 -14 -15 -29 -34 -47 -54 -64 -88 -111 -181 -199 -197 -219 -79 -19 0 -18 -28 -47 -23 0 0 -1 -4 -6 -7 -5 0 0 0 0 0 0
0 0 0 0 0 0 0 0 0 0 0 0 0 0 0 -6 -10 -13 -22 -48 -43 -75 -114 -144 -99 -136 -166 -197 -257 0 -3 -12 -10 -8 -34 0 0 0 0 -86 -8 -5 -5 0 0 0 0 0 0
0 0 0 0 0 0 0 0 0 0 0 0 0 0 0 0 0 -20 -42 -65 -45 -59 -99 -164 -112 -130 -109 -125 0 -88 -3 0 -10 -8 -12 -4 0 0 0 -37 -119 -4 -8 0 0 0 0 0 0
0 0 0 0 0 0 0 0 0 0 0 0 0 0 0 0 0 0 -23 -36 -48 -52 -60 -142 -168 -122 -160 -7 -117 -162 -187 -21 -41 -10 -12 -36 -12 0 0 0 -12 0 0 0 0 0 0 0 0
0 0 0 0 0 0 0 0 0 0 0 0 0 0 0 0 0 0 -36 -4 -70 -43 -99 -145 -152 -181 -180 0 0 0 0 -73 -27 -11 -14 -22 -69 -22 -89 0 0 0 0 0 0 0 0 0 0
0 0 0 0 0 0 0 0 0 0 0 0 0 0 0 0 0 0 -21 -34 -53 -90 -98 -85 -136 -175 -171 -142 0 0 0 -4 -12 -24 -16 -12 -32 -87 0 0 0 0 0 0 0 0 0 0 0
0 0 0 0 0 0 -18 0 0 0 0 0 0 0 0 0 0 0 -31 -26 -45 -98 -97 -79 -126 -167 -155 -107 -65 0 -19 -86 -33 -28 -26 -16 -22 -16 -106 0 0 0 0 0 0 0 0 0 0
0 0 0 0 0 0 0 0 0 0 0 0 0 0 0 0 0 0 -21 -40 -30 -68 -85 -110 -141 -174 -157 -181 -119 -32 -55 -70 -22 -68 -80 -30 -15 -16 0 0 0 0 0 0 0 0 0 0 0
0 0 0 0 0 0 0 0 0 0 0 0 0 0 0 0 0 0 -25 -28 -27 -68 -106 -94 -128 -136 -154 -162 -147 -64 -11 -20 -35 -40 -54 -55 -10 -8 0 0 0 0 0 0 0 0 0 0 0
0 0 0 0 0 0 0 0 0 0 0 0 0 0 0 0 0 -26 -36 -33 -51 -50 -54 -74 -103 -137 -126 -112 -124 -66 -13 -12 -18 -41 -38 -33 -14 -12 0 0 0 0 -96 -111 -127 -139 -170 -182 -158
0 0 0 0 0 0 0 0 0 0 0 0 0 0 0 0 0 -25 -46 -66 -54 -47 -55 -76 -70 -77 -117 -98 -94 -58 -18 -28 -16 -7 -24 -21 -20 -6 -10 -7 -8 -30 -36 -61 -95 -119 -124 -126 -121
0 0 0 0 0 0 0 0 0 0 0 0 0 -26 -15 -27 -31 -37 -56 -83 -94 -67 -61 -61 -79 -93 -141 -154 -85 -47 -44 -12 -5 -7 -9 -23 -20 -23 -18 -13 -10 -26 -53 -39 -44 -71 -91 -107 -147
0 0 0 0 0 0 -1 0 0 0 0 0 -3 -18 -16 -18 -32 -62 -76 -104 -89 -127 -161 -76 -57 -73 -75 -116 -29 -57 -50 -43 -15 -25 -17 -12 -17 -14 -14 -21 -23 -26 -53 -34 -45 -53 -59 -75 -100
0 0 0 0 -6 -1 0 0 0 0 0 0 0 -22 -4 -46 -96 -112 -75 -35 -45 -121 -190 -99 -89 -47 -45 -37 -56 -57 -41 -1 -5 -6 -6 -40 -39 -42 -34 -47 -24 -37 -48 -50 -67 -111 -98 -83 -57
0 0 0 0 0 0 0 0 0 0 -12 0 -72 -35 -36 -96 -186 -173 -52 -86 -132 -108 0 0 0 0 -35 -56 -82 -3 -3 -8 -1 -14 -12 -1 -23 -27 -22 -17 -22 -50 -49 -67 -55 -103 -99 -131 -127
0 -2 0 0 0 0 0 0 0 0 -40 -6 0 -39 -77 -77 0 0 0 0 0 0 0 0 0 0 0 -8 0 0 -9 0 -1 -9 -24 -3 -10 -53 -21 -52 -73 -87 -67 -25 -56 -97 -101 -108 -88
0 0 0 0 0 0 0 0 0 0 -25 -44 -83 -125 -8 0 0 0 0 0 0 0 0 0 0 0 0 0 0 0 -33 0 -14 -47 -16 -22 -60 -35 -51 -37 -58 -77 -83 -34 -40 -54 -93 -100 -34
0 0 0 0 0 0 0 0 0 0 0 0 0 0 0 0 0 0 0 0 0 0 0 0 0 0 0 0 0 0 -81 -5 -11 -7 -69 -11 -39 -41 -19 -39 -46 -74 -91 -42 -40 -78 -65 -62 -14
0 0 0 0 0 0 0 0 0 0 0 0 0 0 0 0 0 0 0 0 0 0 0 0 0 0 0 0 0 0 0 0 -57 -47 -41 -18 -34 -42 -30 -42 -49 -64 -54 -34 -30 -50 -87 -25 -76
0 0 0 0 0 0 0 0 0 0 0 0 0 0 0 0 0 0 0 0 0 0 0 0 0 0 0 0 0 0 0 0 0 0 0 0 0 -28 -94 -52 -36 -42 -50 -46 -39 -57 -70 -76 -65
0 0 0 0 0 0 0 0 0 0 0 0 0 0 0 0 0 0 0 0 0 0 0 0 0 0 0 0 0 0 0 0 0 0 0 0 0 0 0 0 -41 -33 -31 -18 -31 -33 -50 -62 -58
Wind_Speed
20 20 19 18 22 24 30 26 27 29 25 21 23 28 28 22 24 27 9 3 5 2 5 4 6 6 6 6 6 5 5 3 3 1 2 4 6 8 8 9 10 10 12 13 14 14 15 16 17
17 18 16 20 27 33 32 26 30 30 26 30 30 27 23 23 17 11 11 4 7 5 0 3 8 8 7 8 8 8 7 6 5 3 0 2 4 7 8 8 9 9 10 11 12 13 14 16 16
16 15 19 23 29 34 32 26 24 26 29 32 27 21 21 18 12 8 8 2 4 3 1 4 5 9 9 9 10 10 10 10 6 5 2 2 4 6 6 7 7 8 8 9 10 12 13 14 15
17 18 22 31 33 30 33 33 32 33 34 30 21 23 16 15 14 9 5 4 2 4 1 1 4 7 10 11 11 10 11 11 10 7 5 3 5 6 6 6 5 7 8 7 9 10 11 12 13
18 21 29 33 37 36 36 33 35 35 33 32 30 24 22 16 8 6 3 3 1 2 2 2 5 9 10 13 13 12 13 12 12 10 7 5 5 5 5 5 6 6 5 6 8 8 9 10 11
21 22 31 37 38 36 34 34 33 34 33 33 29 25 23 11 10 9 6 6 4 3 2 2 6 9 11 13 15 14 14 11 13 11 9 6 6 5 5 4 3 4 3 4 6 7 7 8 9
21 27 35 36 37 36 34 31 33 34 36 35 26 27 23 17 13 11 8 7 5 5 3 4 6 10 13 14 16 16 17 14 13 13 10 8 7 6 4 3 4 3 3 4 6 5 6 7 7
19 26 34 34 38 41 34 34 34 34 38 29 24 26 24 21 13 11 12 12 10 6 4 4 7 14 16 17 17 17 17 18 16 14 11 9 7 6 5 4 3 4 2 5 4 3 4 5 6
19 29 35 35 35 36 36 38 33 32 30 31 25 25 20 16 13 13 15 16 16 11 8 5 5 7 12 15 17 20 19 19 20 15 11 10 9 8 6 5 4 4 3 2 2 1 2 4 5
22 32 33 31 34 37 39 36 37 35 36 31 33 28 25 15 17 19 19 18 17 14 9 8 7 10 13 18 17 21 22 18 19 16 12 14 12 11 9 7 6 6 5 4 2 1 2 4 6
23 34 34 38 37 38 40 42 36 38 38 32 34 34 32 25 25 23 22 19 18 14 12 14 18 13 14 19 15 22 21 22 20 19 17 16 15 13 13 11 8 8 7 6 5 4 4 5 6
28 29 32 34 36 40 42 41 43 39 41 37 36 35 34 34 30 26 24 22 20 18 16 15 17 18 19 22 17 26 29 26 28 23 20 19 18 14 15 15 12 10 9 9 7 7 6 7 8
28 29 30 32 35 39 42 44 45 47 40 41 39 39 38 38 34 31 26 23 21 23 19 15 17 18 17 25 25 29 36 40 34 27 24 20 18 16 15 18 15 13 12 10 9 9 9 10 11
28 34 35 36 39 39 44 49 44 43 44 46 44 43 41 40 39 35 29 27 23 23 22 19 20 19 20 26 30 28 28 32 30 27 27 26 23 19 20 17 17 16 14 12 11 11 11 12 13
29 35 36 35 37 40 40 55 52 43 43 50 51 49 44 42 40 37 31 29 27 26 21 21 17 13 16 20 26 25 23 25 27 27 26 27 26 23 19 18 18 17 15 14 14 13 13 13 14
30 30 34 28 27 26 27 51 41 42 44 49 48 48 48 44 43 39 30 27 29 22 14 18 17 12 14 18 22 22 21 23 19 25 25 25 26 26 23 21 19 18 17 15 13 14 15 17 16
25 32 32 33 24 28 25 43 37 37 38 43 44 43 46 46 44 42 35 29 29 21 18 18 18 16 20 16 23 24 25 24 29 21 18 27 26 26 26 23 19 17 17 17 16 16 16 16 17
30 32 31 35 28 37 40 43 38 33 35 40 42 42 43 43 42 40 34 30 28 26 22 23 22 19 21 17 16 24 28 26 20 17 26 19 27 27 26 24 22 20 19 18 17 17 17 19 19
23 26 28 25 31 37 41 47 43 37 39 40 38 38 40 39 37 30 28 26 24 25 23 24 29 24 21 21 20 27 32 37 30 15 14 12 22 25 25 25 23 21 20 18 17 17 18 18 17
2 15 8 17 5 19 33 43 43 40 38 37 36 33 36 33 26 25 24 24 24 23 26 25 26 26 28 23 18 20 23 28 25 20 14 14 21 22 24 22 23 22 21 20 19 19 20 19 17
10 10 10 10 11 7 6 36 33 33 33 33 32 30 25 20 21 22 22 23 24 24 25 27 27 34 32 29 25 26 25 28 30 31 18 19 21 24 20 23 23 23 23 22 21 21 21 21 20
11 5 6 2 3 23 15 30 30 22 17 21 23 21 23 17 19 21 20 22 24 23 23 25 27 31 31 26 27 22 25 25 31 28 29 33 20 26 23 23 20 19 21 21 20 21 21 19 18
6 9 7 5 5 6 11 15 11 18 15 24 30 29 31 18 14 18 22 22 23 22 22 22 24 27 26 28 30 27 32 35 25 23 28 31 25 19 24 22 32 23 18 18 20 20 19 26 24
7 4 4 8 10 9 10 16 16 20 16 24 27 27 13 11 13 14 16 17 19 20 21 22 22 24 26 24 18 20 23 24 29 27 29 25 22 23 20 21 24 25 25 21 24 20 21 20 23
8 2 6 10 14 14 18 19 16 12 13 16 24 24 4 7 12 14 15 16 16 18 21 21 22 23 23 25 24 19 19 23 15 25 26 25 21 28 25 25 24 27 28 25 24 20 22 19 23
6 5 9 12 13 17 21 14 17 14 13 13 28 24 9 7 10 10 11 12 13 14 15 17 18 18 19 19 18 21 25 22 17 23 21 23 28 27 28 27 28 28 29 26 23 22 22 25 23
10 8 10 13 15 20 14 15 15 16 17 20 21 22 19 14 10 10 9 10 10 10 11 10 12 14 15 15 16 16 17 12 13 16 16 21 29 24 21 29 30 27 25 23 20 24 21 19 21
12 5 14 16 16 15 17 17 13 14 20 19 18 20 25 15 8 8 10 8 8 6 7 9 11 12 14 15 14 13 16 13 15 20 22 25 26 27 29 22 17 18 21 25 22 20 18 15 13
11 9 13 15 19 16 14 16 10 15 20 22 9 15 26 13 8 7 4 3 5 5 4 6 7 10 12 13 14 14 15 15 17 19 20 23 25 26 29 30 25 15 15 13 17 20 22 23 23
12 7 12 15 12 18 21 9 11 16 19 23 7 27 25 23 14 16 5 4 6 5 8 9 12 14 15 17 18 18 18 19 20 21 22 23 24 25 26 28 27 27 28 26 23 26 26 21 23
Wind_Direction
305 300 304 302 284 282 276 280 285 287 288 290 289 292 295 299 291 288 329 26 76 106 255 261 257 271 277 290 297 302 302 298 298 332 75 89 93 94 89 86 86 80 75 68 65 60 60 63 62
309 305 302 292 279 274 279 280 281 280 284 286 288 297 292 296 307 312 317 76 99 103 222 260 256 262 274 280 289 291 289 287 279 279 242 109 108 106 96 92 91 81 74 66 58 62 66 71 68
306 307 290 283 278 273 282 282 280 286 286 287 290 300 300 296 311 317 326 93 96 88 325 251 243 261 270 279 285 286 283 280 268 264 237 168 133 120 105 102 93 87 76 67 64 68 67 71 71
308 298 289 276 276 282 278 280 278 284 284 292 288 286 303 310 307 321 355 74 72 108 19 145 234 260 267 274 282 285 282 275 270 259 251 211 154 137 122 116 91 89 81 70 72 73 68 65 67
305 294 278 277 275 278 279 281 280 282 286 286 289 280 287 302 325 323 328 309 349 359 124 173 252 263 267 271 278 283 283 276 268 259 246 211 177 152 134 131 113 99 71 76 80 73 64 62 65
297 294 281 275 276 278 280 280 282 281 281 282 292 282 286 289 295 294 289 290 284 274 232 229 257 262 270 272 274 279 282 276 267 259 244 209 189 168 146 144 130 115 100 91 86 73 58 58 62
299 289 280 280 280 279 279 285 284 283 278 275 291 287 286 284 290 300 295 295 293 272 249 233 260 266 268 271 274 273 277 277 266 260 250 217 193 181 181 164 147 141 128 115 103 78 61 56 49
311 296 285 282 279 278 281 284 285 283 276 286 290 282 287 288 284 299 303 300 299 282 267 233 259 266 270 270 273 272 274 273 267 258 245 224 204 196 199 197 173 155 163 128 110 77 53 47 40
320 295 287 283 280 280 282 283 284 288 284 280 288 288 293 295 286 288 292 296 290 288 276 261 238 258 271 271 274 271 272 270 270 257 239 227 234 219 215 216 191 194 193 182 146 68 19 13 6
305 293 293 291 285 282 283 285 284 283 278 276 277 292 304 282 279 279 280 283 288 279 276 269 263 273 277 271 275 272 269 269 267 256 236 241 234 237 236 227 200 216 211 219 229 277 324 333 338
314 294 295 290 290 285 283 279 284 279 271 275 277 280 287 297 285 273 276 279 280 279 264 277 275 279 277 271 258 262 274 269 264 253 244 242 242 238 242 238 221 222 228 241 253 270 292 311 322
309 305 301 297 293 286 280 282 276 275 272 276 280 279 280 281 288 290 281 276 281 278 275 272 270 275 274 261 273 255 263 274 264 252 243 243 246 240 237 240 233 232 236 244 255 269 284 296 303
314 312 307 303 297 289 285 276 275 272 276 275 276 275 274 275 281 287 290 280 280 276 273 272 267 270 272 263 270 261 261 271 258 245 241 239 246 240 237 237 238 239 243 247 255 268 278 287 298
321 312 308 301 293 288 281 274 274 273 275 271 271 270 272 271 275 282 283 280 278 277 279 278 277 270 270 270 270 269 267 274 244 240 243 243 243 242 241 241 241 243 244 249 256 262 276 284 293
324 314 314 306 295 288 286 271 268 276 275 270 267 267 269 269 272 275 278 278 275 273 272 276 275 276 277 277 270 269 264 269 248 243 244 244 242 241 242 245 244 242 243 246 257 264 275 281 288
322 321 312 321 313 302 288 273 280 277 272 267 267 266 266 267 266 270 275 277 266 266 269 270 271 274 282 278 273 271 263 256 252 254 252 246 242 239 244 247 244 242 245 245 251 263 272 279 285
329 318 315 317 320 308 296 283 286 280 274 269 266 265 265 265 264 264 269 274 269 260 257 264 270 271 280 284 277 270 263 256 253 254 253 249 242 243 243 245 238 238 243 250 256 263 271 278 284
328 322 318 312 317 304 296 287 289 288 277 273 270 266 265 264 262 261 267 271 270 257 257 260 270 275 273 291 288 275 262 254 254 251 254 244 244 242 240 240 240 244 247 249 254 263 272 278 282
343 336 330 329 318 304 293 284 285 285 281 275 272 268 264 262 259 260 265 269 270 262 261 262 265 271 273 281 287 277 261 248 256 248 223 218 242 238 239 240 241 242 243 246 254 264 270 275 283
242 359 322 267 314 339 311 288 285 281 278 274 272 264 265 260 252 255 264 267 266 262 259 262 263 267 265 277 287 289 271 262 262 256 225 210 235 236 235 237 240 243 247 247 254 262 270 275 278
233 236 262 266 280 252 273 307 300 285 274 268 264 265 264 251 243 251 262 271 263 260 261 263 264 256 258 263 275 278 275 267 265 256 248 204 206 235 233 239 241 246 249 252 256 264 268 272 278
245 191 239 278 50 17 78 340 319 305 283 265 262 258 252 251 251 254 266 271 256 259 263 266 264 258 261 263 268 280 271 268 261 259 262 251 233 242 243 247 246 243 252 254 257 265 271 278 278
206 248 261 249 88 103 93 68 87 116 246 230 214 213 207 250 258 258 267 264 256 259 266 270 272 267 269 261 265 273 263 258 259 261 261 255 256 241 241 249 249 254 254 260 260 265 273 278 281
219 259 126 117 111 97 124 97 107 124 152 172 188 193 246 252 259 278 281 272 265 266 268 268 279 273 268 262 292 279 276 279 251 254 259 261 250 252 248 246 254 261 266 276 269 271 275 272 276
160 212 112 106 100 94 110 108 118 176 184 176 166 143 272 284 279 291 283 269 278 273 262 267 275 276 278 272 272 287 297 283 259 250 258 259 259 256 260 264 272 273 271 275 279 278 279 283 281
220 158 114 102 104 100 109 126 123 145 174 182 119 115 240 285 280 283 283 270 273 280 283 271 281 284 301 300 283 281 284 291 283 265 266 267 257 269 268 268 274 278 273 275 280 279 279 284 277
136 112 114 124 129 104 124 139 141 135 149 150 166 179 196 221 243 248 273 265 269 296 297 285 305 311 331 328 299 288 308 311 289 277 284 277 261 279 289 271 272 278 275 276 275 278 284 287 282
152 155 111 106 112 131 127 123 134 148 128 171 184 176 146 204 240 294 345 293 276 278 315 338 346 319 320 325 335 317 289 306 279 269 270 263 255 276 274 285 278 276 278 274 274 280 285 288 304
119 106 122 120 114 127 134 115 125 140 157 151 194 160 126 190 212 341 296 242 327 314 319 335 322 319 319 313 307 310 303 297 301 295 296 290 287 283 278 275 281 280 274 279 275 278 278 280 281
122 109 113 122 128 125 118 131 124 131 142 143 19 128 133 141 171 153 184 345 352 307 322 315 332 340 335 342 342 338 329 325 323 317 314 309 303 301 298 290 288 286 282 284 286 281 279 280 277